Hourly Data Report for June 17, 2004

TORONTO CITY
ONTARIO

43°40'00.000" N
79°24'00.000" W
112.50 m
6158355
71508
XTO

Download Data

Hourly Data (June 2004)
Hourly Data Report for June 17, 2004
TIME
LST
Temp Definition
°C
Dew Point Definition
°C
Rel Hum Definition
%
Precip. Amount Definition
mm

Wind Dir Definition
10's deg

Wind Spd Definition
km/h
Visibility Definition
km
Stn Press Definition
kPa
Hmdx Definition


Wind Chill Definition


Weather Definition


00:00 18.6 10.9 61   LegendMM LegendMM LegendMM 100.46     LegendNANA
01:00 18.7 11.0 61   LegendMM LegendMM LegendMM 100.41     LegendNANA
02:00 18.7 11.4 62   LegendMM LegendMM LegendMM 100.39     LegendNANA
03:00 18.4 12.3 68   LegendMM LegendMM LegendMM 100.31     LegendNANA
04:00 18.1 13.4 74   LegendMM LegendMM LegendMM 100.28     LegendNANA
05:00 18.3 13.6 74   LegendMM LegendMM LegendMM 100.29     LegendNANA
06:00 18.6 14.0 75   LegendMM LegendMM LegendMM 100.27     LegendNANA
07:00 18.1 15.4 84   LegendMM LegendMM LegendMM 100.26     LegendNANA
08:00 18.0 16.8 93   LegendMM LegendMM LegendMM 100.19     LegendNANA
09:00 19.1 18.3 95   LegendMM LegendMM LegendMM 100.17     LegendNANA
10:00 18.9 18.2 96   LegendMM LegendMM LegendMM 100.16     LegendNANA
11:00 18.8 18.3 97   LegendMM LegendMM LegendMM 100.16     LegendNANA
12:00 18.8 18.3 97   LegendMM LegendMM LegendMM 100.13     LegendNANA
13:00 19.5 18.6 95   LegendMM LegendMM LegendMM 100.06     LegendNANA
14:00 19.8 18.1 90   LegendMM LegendMM LegendMM 99.99     LegendNANA
15:00 20.5 18.2 87   LegendMM LegendMM LegendMM 100.00 27   LegendNANA
16:00 20.9 17.6 81   LegendMM LegendMM LegendMM 99.97 27   LegendNANA
17:00 20.4 18.2 87   LegendMM LegendMM LegendMM 99.98 27   LegendNANA
18:00 20.4 17.9 86   LegendMM LegendMM LegendMM 100.00 26   LegendNANA
19:00 20.4 18.2 87   LegendMM LegendMM LegendMM 100.05 27   LegendNANA
20:00 19.5 17.4 88   LegendMM LegendMM LegendMM 100.04     LegendNANA
21:00 19.2 16.9 87   LegendMM LegendMM LegendMM 100.06     LegendNANA
22:00 18.8 16.8 88   LegendMM LegendMM LegendMM 100.02     LegendNANA
23:00 18.3 16.1 87   LegendMM LegendMM LegendMM 100.06     LegendNANA

Notes on Data Quality.

Legend

  • E = Estimated
  • M = Missing
  • NA = Not Available*
  • [empty] = Indicates an unobserved value
Date modified: